Weather History for West Point, VA

Change the Weather History Date:

Sunday, November 10, 2013

  Actual Average (KRIC) Record (KRIC)
Temperature  
Mean Temperature 57 °F 52 °F  
Max Temperature 70 °F 64 °F 79 °F (1966)
Min Temperature 44 °F 41 °F 23 °F (1933)
Degree Days  
Heating Degree Days 8 13  
Month to date heating degree days 117  
Since 1 July heating degree days 350  
Cooling Degree Days 0 0  
Month to date cooling degree days 0  
Year to date cooling degree days 1543  
Growing Degree Days 7 (Base 50)    
Moisture  
Dew Point 28 °F    
Average Humidity 36    
Maximum Humidity 62    
Minimum Humidity 17    
Precipitation  
Precipitation 0.00 in 0.11 in 1.64 in (1983)
Month to date precipitation 1.09  
Year to date precipitation 38.19  
Snow  
Snow 0.00 in 0.00 in 0.00 in (2002)
Month to date snowfall 0.0  
Since 1 July snowfall 0.0  
Snow Depth -    
Sea Level Pressure  
Sea Level Pressure 30.10 in    
Wind  
Wind Speed 8 mph (West)    
Max Wind Speed 21 mph    
Max Gust Speed 28 mph    
Visibility 10 miles    
Events      
T = Trace of Precipitation, MM = Missing Value Source: NWS Daily Summary

Daily Weather History Graph

Daily Weather History Graph

Search for Another Location

Airport:

Trip Planner

Search our weather history database for the weather conditions in past years. The results will help you decide how hot, cold, wet, or windy it might be!

Date:

Astronomy

Nov. 10, 2013 Rise Set
Actual Time 6:41 AM EST 4:59 PM EST
Civil Twilight 6:14 AM EST 5:27 PM EST
Nautical Twilight 5:42 AM EST 5:58 PM EST
Astronomical Twilight 5:11 AM EST 6:29 PM EST
Moon 12:56 PM EST (11/10) No Moon Set
Length of Visible Light 11h 13m
Length of Day
10h 18m
First Quarter, 55% of the Moon is Illuminated
Nov 10
First Quarter
Nov 17
Full
Nov 25
Last Quarter
Dec 2
New
Dec 9
First Quarter

Hourly Weather History & Observations

Time (EST) Temp. Windchill Dew Point Humidity Pressure Visibility Wind Dir Wind Speed Gust Speed Precip Events Conditions
12:15 AM 49.8 °F - 31.8 °F 50% 30.12 in 10.0 mi SW 8.1 mph - N/A   Clear
12:35 AM 50.4 °F - 31.3 °F 48% 30.11 in 10.0 mi SW 8.1 mph - N/A   Clear
12:55 AM 49.8 °F - 32.0 °F 50% 30.11 in 10.0 mi SSW 5.8 mph - N/A   Clear
1:15 AM 50.0 °F - 31.5 °F 49% 30.11 in 10.0 mi SW 6.9 mph - N/A   Clear
1:35 AM 49.8 °F - 31.6 °F 50% 30.11 in 10.0 mi SW 6.9 mph - N/A   Clear
1:55 AM 49.6 °F - 31.8 °F 50% 30.11 in 10.0 mi SW 8.1 mph - N/A   Clear
2:15 AM 49.1 °F - 31.8 °F 51% 30.10 in 10.0 mi SW 6.9 mph - N/A   Clear
2:35 AM 48.9 °F - 32.0 °F 52% 30.10 in 10.0 mi SW 4.6 mph - N/A   Clear
2:55 AM 48.6 °F - 32.0 °F 53% 30.10 in 10.0 mi SW 6.9 mph - N/A   Clear
3:15 AM 47.1 °F - 32.0 °F 56% 30.10 in 10.0 mi Calm Calm - N/A   Clear
3:35 AM 46.0 °F 43.1 °F 32.0 °F 58% 30.10 in 10.0 mi WSW 5.8 mph - N/A   Clear
3:55 AM 45.7 °F 42.7 °F 32.0 °F 59% 30.09 in 10.0 mi WSW 5.8 mph - N/A   Clear
4:15 AM 45.7 °F 42.7 °F 32.0 °F 59% 30.10 in 10.0 mi WSW 5.8 mph - N/A   Clear
4:35 AM 45.5 °F 42.5 °F 32.0 °F 59% 30.10 in 10.0 mi SW 5.8 mph - N/A   Clear
4:55 AM 44.8 °F 43.3 °F 32.0 °F 61% 30.10 in 10.0 mi WSW 3.5 mph - N/A   Clear
5:15 AM 45.5 °F 43.2 °F 32.9 °F 61% 30.11 in 10.0 mi WSW 4.6 mph - N/A   Clear
5:35 AM 45.9 °F 44.6 °F 32.9 °F 61% 30.11 in 10.0 mi WSW 3.5 mph - N/A   Clear
5:55 AM 45.3 °F 44.0 °F 32.7 °F 61% 30.11 in 10.0 mi WSW 3.5 mph - N/A   Clear
6:15 AM 45.0 °F 43.5 °F 32.5 °F 62% 30.11 in 10.0 mi WSW 3.5 mph - N/A   Clear
6:35 AM 46.6 °F - 32.0 °F 57% 30.11 in 10.0 mi SW 5.8 mph - N/A   Clear
6:55 AM 46.6 °F - 32.4 °F 58% 30.11 in 10.0 mi SW 6.9 mph - N/A   Clear
7:15 AM 48.6 °F - 32.0 °F 53% 30.11 in 10.0 mi WSW 8.1 mph - N/A   Clear
7:35 AM 48.7 °F - 32.2 °F 53% 30.11 in 10.0 mi WSW 4.6 mph - N/A   Clear
7:55 AM 50.7 °F - 32.0 °F 49% 30.11 in 10.0 mi West 5.8 mph - N/A   Clear
8:15 AM 52.9 °F - 31.5 °F 44% 30.11 in 10.0 mi WSW 8.1 mph - N/A   Clear
8:35 AM 54.0 °F - 31.3 °F 42% 30.11 in 10.0 mi WSW 9.2 mph - N/A   Clear
8:55 AM 55.2 °F - 31.8 °F 41% 30.10 in 10.0 mi SW 9.2 mph - N/A   Clear
9:15 AM 57.6 °F - 31.6 °F 37% 30.10 in 10.0 mi WSW 10.4 mph - N/A   Clear
9:35 AM 59.2 °F - 31.8 °F 36% 30.09 in 10.0 mi WSW 9.2 mph - N/A   Clear
9:55 AM 61.2 °F - 32.0 °F 33% 30.08 in 10.0 mi WSW 11.5 mph - N/A   Clear
10:15 AM 63.5 °F - 31.8 °F 31% 30.08 in 10.0 mi WSW 12.7 mph - N/A   Clear
10:35 AM 65.5 °F - 31.8 °F 28% 30.07 in 10.0 mi WSW 12.7 mph 19.6 mph N/A   Clear
10:55 AM 67.1 °F - 31.5 °F 27% 30.06 in 10.0 mi WSW 18.4 mph 23.0 mph N/A   Clear
11:15 AM 67.8 °F - 30.9 °F 25% 30.05 in 10.0 mi WSW 13.8 mph 18.4 mph N/A   Clear
11:35 AM 68.5 °F - 29.3 °F 23% 30.04 in 10.0 mi WSW 19.6 mph 24.2 mph N/A   Clear
11:55 AM 69.3 °F - 28.0 °F 21% 30.03 in 10.0 mi WSW 19.6 mph 25.3 mph N/A   Clear
12:15 PM 69.3 °F - 25.9 °F 20% 30.02 in 10.0 mi WSW 20.7 mph - N/A   Clear
12:35 PM 69.1 °F - 24.3 °F 19% 30.01 in 10.0 mi WSW 17.3 mph 25.3 mph N/A   Clear
12:55 PM 69.1 °F - 24.1 °F 18% 29.99 in 10.0 mi WSW 13.8 mph 25.3 mph N/A   Clear
1:15 PM 70.7 °F - 25.5 °F 18% 29.99 in 10.0 mi West 15.0 mph 19.6 mph N/A   Clear
1:35 PM 69.8 °F - 23.2 °F 17% 29.99 in 10.0 mi West 18.4 mph 27.6 mph N/A   Clear
1:55 PM 70.3 °F - 25.0 °F 18% 29.99 in 10.0 mi West 16.1 mph 20.7 mph N/A   Clear
2:15 PM 70.0 °F - 24.8 °F 18% 29.99 in 10.0 mi WSW 19.6 mph 24.2 mph N/A   Clear
2:35 PM 69.8 °F - 24.4 °F 18% 29.99 in 10.0 mi West 13.8 mph 21.9 mph N/A   Clear
2:55 PM 69.8 °F - 24.4 °F 18% 29.99 in 10.0 mi West 12.7 mph 23.0 mph N/A   Clear
3:15 PM 69.8 °F - 25.7 °F 19% 29.99 in 10.0 mi West 13.8 mph 19.6 mph N/A   Clear
3:35 PM 69.4 °F - 25.5 °F 19% 30.00 in 10.0 mi West 9.2 mph 17.3 mph N/A   Clear
3:55 PM 69.1 °F - 24.8 °F 19% 30.01 in 10.0 mi West 9.2 mph - N/A   Clear
4:15 PM 68.5 °F - 24.4 °F 19% 30.02 in 10.0 mi West 8.1 mph - N/A   Clear
4:35 PM 67.6 °F - 21.6 °F 17% 30.03 in 10.0 mi West 8.1 mph - N/A   Clear
4:55 PM 65.5 °F - 22.3 °F 19% 30.04 in 10.0 mi West 6.9 mph - N/A   Clear
5:15 PM 62.8 °F - 25.2 °F 24% 30.05 in 10.0 mi West 3.5 mph - N/A   Clear
5:35 PM 59.2 °F - 27.5 °F 30% 30.06 in 10.0 mi West 5.8 mph - N/A   Clear
5:55 PM 62.1 °F - 24.8 °F 24% 30.09 in 10.0 mi North 9.2 mph - N/A   Clear
6:15 PM 60.8 °F - 25.7 °F 26% 30.11 in 10.0 mi North 8.1 mph 18.4 mph N/A   Clear
6:35 PM 59.4 °F - 26.1 °F 28% 30.13 in 10.0 mi North 8.1 mph - N/A   Clear
6:55 PM 58.3 °F - 26.1 °F 29% 30.14 in 10.0 mi North 9.2 mph - N/A   Clear
7:15 PM 57.2 °F - 25.3 °F 29% 30.16 in 10.0 mi North 6.9 mph - N/A   Clear
7:35 PM 56.3 °F - 23.5 °F 28% 30.17 in 10.0 mi NNW 9.2 mph - N/A   Clear
7:55 PM 55.6 °F - 22.3 °F 27% 30.19 in 10.0 mi NNW 5.8 mph - N/A   Clear
8:15 PM 54.5 °F - 22.6 °F 29% 30.20 in 10.0 mi North 5.8 mph - N/A   Clear
8:35 PM 54.0 °F - 22.1 °F 29% 30.21 in 10.0 mi NNW 6.9 mph - N/A   Clear
8:55 PM 53.1 °F - 22.8 °F 31% 30.22 in 10.0 mi NNW 9.2 mph - N/A   Clear
9:15 PM 52.3 °F - 22.8 °F 32% 30.24 in 10.0 mi North 4.6 mph - N/A   Clear
9:35 PM 52.0 °F - 22.5 °F 32% 30.24 in 10.0 mi NNW 6.9 mph 16.1 mph N/A   Clear
9:55 PM 51.3 °F - 22.1 °F 32% 30.26 in 10.0 mi North 9.2 mph - N/A   Clear
10:15 PM 50.4 °F - 22.3 °F 33% 30.26 in 10.0 mi North 5.8 mph - N/A   Clear
10:35 PM 50.0 °F - 21.9 °F 33% 30.26 in 10.0 mi NNW 4.6 mph - N/A   Clear
10:55 PM 49.5 °F - 22.1 °F 34% 30.26 in 10.0 mi NNW 4.6 mph - N/A   Clear
11:15 PM 49.3 °F - 22.1 °F 34% 30.26 in 10.0 mi NNW 4.6 mph - N/A   Clear
11:35 PM 48.2 °F - 23.4 °F 38% 30.26 in 10.0 mi NW 3.5 mph - N/A   Clear
11:55 PM 47.7 °F - 23.7 °F 39% 30.26 in 10.0 mi NNW 3.5 mph - N/A   Clear